KJ6HT Weather Reports


Display with metric or nautical units.
time (UTC)temp
F
wind
direction
speed
MPH
gust
MPH
rain 1hr
in
rain 24hr
in
rain mn
in
humidity
%
barometer
mb
20260503220123 69 257 2.0 8.0 0.00 0.00 0.00 63 1011.5
20260503214547 69 296 4.0 9.0 0.00 0.00 0.00 62 1011.7
20260503213132 69 290 5.0 10.0 0.00 0.00 0.00 62 1011.7
20260503211609 68 36 2.0 7.0 0.00 0.00 0.00 67 1011.8
20260503210132 69 300 1.0 3.0 0.00 0.00 0.00 66 1012.0
20260503204546 66 219 1.0 7.0 0.00 0.00 0.00 71 1012.1
20260503203026 65 305 1.0 7.0 0.00 0.00 0.00 73 1012.3
20260503201620 65 311 1.0 12.0 0.00 0.00 0.00 73 1012.4
20260503200053 64 275 5.0 9.0 0.00 0.00 0.00 76 1012.6
20260503194628 63 5 3.0 10.0 0.00 0.00 0.00 79 1012.8
20260503193040 62 301 4.0 10.0 0.00 0.00 0.00 82 1013.0
20260503191631 62 243 3.0 10.0 0.00 0.00 0.00 83 1013.1
20260503190048 61 293 3.0 9.0 0.00 0.00 0.00 87 1013.1
20260503184504 59 310 3.0 7.0 0.00 0.00 0.00 89 1013.3
20260503183042 59 314 1.0 7.0 0.00 0.00 0.00 91 1013.4
20260503181628 59 231 2.0 9.0 0.00 0.00 0.00 91 1013.4
20260503180044 59 290 2.0 5.0 0.00 0.00 0.00 90 1013.4
20260503174628 59 249 3.0 5.0 0.00 0.00 0.00 91 1013.3
20260503173118 59 303 2.0 6.0 0.00 0.00 0.00 92 1013.2
20260503171541 59 309 2.0 6.0 0.00 0.00 0.00 93 1013.0
20260503170129 59 240 2.0 5.0 0.00 0.00 0.00 93 1013.0
20260503150133 57 294 1.0 3.0 0.00 0.00 0.00 94 1012.5
20260503140133 57 312 2.0 5.0 0.00 0.00 0.00 94 1012.2
20260503120130 58 297 1.0 3.0 0.00 0.00 0.00 92 1011.1
20260503081546 58 290 1.0 5.0 0.00 0.00 0.00 88 1011.8
20260503071547 59 129 0.0 1.0 0.00 0.00 0.00 84 1011.5
20260503070138 60 124 0.0 2.0 0.00 0.00 0.00 83 1011.5
20260503060113 61 236 1.0 5.0 0.00 0.00 0.00 81 1011.4
20260503054538 61 226 2.0 8.0 0.00 0.00 0.00 81 1011.6
20260503053127 61 315 3.0 7.0 0.00 0.00 0.00 80 1011.7
20260503051543 62 309 0.0 6.0 0.00 0.00 0.00 79 1011.5
20260503050125 62 304 2.0 6.0 0.00 0.00 0.00 79 1011.3
20260503044536 63 301 1.0 6.0 0.00 0.00 0.00 78 1011.2
20260503043000 63 284 4.0 10.0 0.00 0.00 0.00 77 1010.9
20260503041547 63 246 2.0 7.0 0.00 0.00 0.00 77 1010.6
20260503040008 64 297 2.0 5.0 0.00 0.00 0.00 75 1010.5
20260503034602 65 290 2.0 5.0 0.00 0.00 0.00 73 1010.1
20260503033029 66 277 5.0 10.0 0.00 0.00 0.00 72 1009.8
20260503031556 67 294 2.0 6.0 0.00 0.00 0.00 70 1009.6
20260503030132 69 297 2.0 4.0 0.00 0.00 0.00 67 1009.4
20260503024552 70 260 2.0 5.0 0.00 0.00 0.00 64 1009.0
20260503023004 71 240 0.0 3.0 0.00 0.00 0.00 61 1008.7
20260503021600 72 309 1.0 5.0 0.00 0.00 0.00 60 1008.5
20260503020008 73 274 1.0 7.0 0.00 0.00 0.00 58 1008.6
20260503014605 74 309 1.0 7.0 0.00 0.00 0.00 57 1008.5
20260503013032 75 301 0.0 9.0 0.00 0.00 0.00 55 1008.5
20260503011633 75 340 3.0 11.0 0.00 0.00 0.00 54 1008.5
20260503010107 76 297 3.0 7.0 0.00 0.00 0.00 52 1008.5
20260503004514 77 314 3.0 10.0 0.00 0.00 0.00 54 1008.4
20260503003122 77 336 2.0 14.0 0.00 0.00 0.00 54 1008.5
20260503001542 77 253 4.0 12.0 0.00 0.00 0.00 54 1008.4
20260503000121 78 309 6.0 15.0 0.00 0.00 0.00 54 1008.3
20260502234544 78 307 4.0 13.0 0.00 0.00 0.00 54 1008.3
20260502233002 78 210 7.0 15.0 0.00 0.00 0.00 52 1008.3
20260502231606 79 214 4.0 11.0 0.00 0.00 0.00 51 1008.4
20260502230025 79 276 5.0 14.0 0.00 0.00 0.00 51 1008.6
20260502224620 80 343 6.0 12.0 0.00 0.00 0.00 50 1008.8
20260502223042 79 225 7.0 15.0 0.00 0.00 0.00 51 1009.1
20260502221504 80 309 5.0 15.0 0.00 0.00 0.00 51 1009.4